Regional Weather Roundup
Issued by NWS

Home | Current Version | Previous Version | Text Only | Print | Product List | Glossary On
Versions: 1 2 3 4 5 6 7 8 9 10 11 12 13 14 15 16 17 18 19 20 21 22 23 24 25 26 27 28 29 30 31 32 33 34 35 36 37 38 39 40 41 42 43 44 45 46 47 48 49 50
000
ASUS43 KMPX 272010
RWRMN
WEATHER ROUNDUP FOR MINNESOTA
NATIONAL WEATHER SERVICE TWIN CITIES/CHANHASSEN MN
300 PM CDT SUN MAY 27 2018


NOTE: "FAIR" INDICATES FEW OR NO CLOUDS BELOW 12,000 FEET WITH NO
SIGNIFICANT WEATHER AND/OR OBSTRUCTIONS TO VISIBILITY. N/A MEANS
CURRENT SKY AND/OR WEATHER CONDITIONS ARE NOT AVAILABLE.

MNZ060>063-068>070-272100-
   Twin Cities Metro

CITY           SKY/WX    TMP DP  RH WIND       PRES   REMARKS
TWIN CITIES    CLOUDY    88  60  38 E10       29.85F
ST PAUL        FAIR      87  59  38 E9        29.84F
CRYSTAL        FAIR      86  57  37 SE9       29.83F
BLAINE         PTSUNNY   88  55  33 SE8       29.85F
LAKEVILLE      FAIR      88  57  35 NE9       29.86F
EDEN PRAIRIE   FAIR      87  59  38 E7        29.84F
SOUTH ST PAUL  FAIR      87  55  33 E6        29.84F
LAKE ELMO      FAIR      86  63  45 SE9       29.86F
$$
MNZ001>005-007-008-013>017-022>024-027-028-272100-
   Northwest Minnesota

CITY           SKY/WX    TMP DP  RH WIND       PRES   REMARKS
BEMIDJI        FAIR      78  59  52 N7        29.85R
HALLOCK        FAIR      81  63  54 NE7       29.84S
ROSEAU         FAIR      79  63  57 NE6       29.86S
WARROAD        FAIR      72  63  73 E6        29.88R
THIEF RVR FALL FAIR      80  60  50 NE13      29.85R
CROOKSTON      FAIR      81  59  47 N9        29.82F
FOSSTON        FAIR      77  61  57 N14       29.84R
DETROIT LAKES  FAIR      79  59  50 S15       29.79F
MOORHEAD       FAIR      82  61  47 S7        29.76R
PARK RAPIDS    FAIR      78  61  55 S9        29.80F
MAHNOMEN       FAIR      74  63  68 NE8       29.79F
$$
MNZ006-009>011-018-025>026-272100-
   North Central Minnesota

CITY           SKY/WX    TMP DP  RH WIND       PRES   REMARKS
BAUDETTE         N/A    N/A N/A N/A MISG      29.86S
FLAG ISLAND    PTSUNNY   70  61  73 N6        29.85F
INTL FALLS     PTSUNNY   76  63  64 NE7       29.85S
WASKISH        FAIR      79  64  61 CALM      29.85F
BIG FORK       FAIR      81  57  44 N5        29.85R
LONGVILLE      FAIR      79  59  50 SE6       29.83R
GRAND RAPIDS   FAIR      78  61  55 N6        29.86R
ORR            FAIR      81  57  44 W6        29.84R
COOK           FAIR      81  61  50 NW3       29.86R
WALKER         FAIR      75  61  62 E3        29.81F
$$
MNZ012-019>021-037-272100-
   Northeast Minnesota

CITY           SKY/WX    TMP DP  RH WIND       PRES   REMARKS
DULUTH         FAIR      86  57  37 VRB3      29.81R
ELY            FAIR      82  50  32 N3        29.83S
HIBBING        FAIR      80  59  48 NW5       29.83R
EVELETH        FAIR      81  59  47 NW6       29.85R
DULUTH HARBOR  FAIR      70  61  73 NE8       29.77R
TWO HARBORS    FAIR      82  63  51 CALM      29.80R
SILVER BAY     FAIR      84  61  45 S7        29.79F
GRAND MARAIS     N/A     46  41  82 SE3       29.86R
G MARAIS ARPRT FAIR      77  55  47 S6        29.88R
$$
MNZ029>031-032-039>041-046>048-054>057-064-272100-
   West Central Minnesota

CITY           SKY/WX    TMP DP  RH WIND       PRES   REMARKS
FERGUS FALLS   FAIR      84  59  42 SE16      29.74F
MORRIS         CLOUDY    82  66  57 SE16      29.80S
ALEXANDRIA     FAIR      85  60  42 SE9       29.85S
ELBOW LAKE     FAIR      88  61  39 E16       29.81S
WADENA         FAIR      82  63  51 SE7       29.82S
GLENWOOD       FAIR      82  61  47 SE12      29.83F
BENSON         CLOUDY    88  57  35 S14       29.81F
ORTONVILLE     CLOUDY    90  61  37 SE10G17   29.78S
MADISON        MOSUNNY   97  54  23 SE18G24   29.77F HX  94
WILLMAR        FAIR      82  59  44 E16G24    29.84F
$$
MNZ033>034-036-042>043-049>051-058-059-272100-
   Central Minnesota

CITY           SKY/WX    TMP DP  RH WIND       PRES   REMARKS
ST CLOUD       FAIR      83  56  39 SE13      29.83F
SAUK CENTRE    FAIR      81  62  53 SE12      29.84S
PAYNESVILLE    FAIR      89  56  32 SE12      29.84F
AITKIN         FAIR      77  61  57 CALM      29.80R
PINE RIVER     FAIR      75  61  60 SE6       29.85S
BRAINERD       FAIR      81  62  52 S8        29.81F
STAPLES        FAIR      82  57  42 S12       29.82S
LONG PRAIRIE   FAIR      77  63  61 E5        29.85R
LITTLE FALLS   FAIR      79  64  61 S8        29.84R
LITCHFIELD     FAIR      84  61  45 SE13      29.85S
BUFFALO        FAIR      87  53  30 E7        29.86S
MAPLE LAKE     FAIR      87  60  39 E6        29.86F
HUTCHINSON     FAIR      85  62  44 E9        29.87S
$$
MNZ037-044-045-052-053-272100-
   East Central Minnesota

CITY           SKY/WX    TMP DP  RH WIND       PRES   REMARKS
PRINCETON      FAIR      88  57  35 SE9       29.83F
MORA           FAIR      73  59  60 SW7       29.86R
CAMBRIDGE      FAIR      86  63  45 S5        29.84F
RUSH CITY      FAIR      78  57  48 SW10      29.84R
MOOSE LAKE     FAIR      79  59  50 S3        29.79F
HINCKLEY       FAIR      79  63  57 E6        29.81F
CLOQUET        FAIR      82  52  34 S10       29.79F
MCGREGOR       FAIR      81  59  47 S6        29.81R
$$
MNZ071>073-080-081-089-090-097-098-272100-
   Southwest Minnesota

CITY           SKY/WX    TMP DP  RH WIND       PRES   REMARKS
MONTEVIDEO     MOSUNNY   93  55  27 S20G26    29.80F HX  91
CANBY          CLOUDY    94  57  29 S9        29.79F HX  92
MARSHALL       MOSUNNY   95  62  33 SE9       29.80F HX  96
REDWOOD FALLS  MOSUNNY   92  56  29 E14G23    29.80F HX  90
OLIVIA         CLOUDY    88  57  35 E17G23    29.82F
PIPESTONE      SUNNY     97  59  28 SW16      29.83F HX  96
WINDOM         CLOUDY    97  61  30 E9        29.83F HX  97
WORTHINGTON    SUNNY     98  55  23 VRB6      29.84S HX  96
JACKSON        SUNNY     95  55  26 SE14      29.85S HX  93
TRACY          CLOUDY    97  60  29 E10       29.81F HX  97
SLAYTON        SUNNY     99  54  22 SW13G23   29.84F HX  96
$$
MNZ065>067-074>077-082>085-091>093-272100-
   South Central Minnesota

CITY           SKY/WX    TMP DP  RH WIND       PRES   REMARKS
MANKATO        FAIR      93  57  29 NE14      29.85S HX  91
NEW ULM        CLOUDY    91  52  25 E14G21    29.83F
ST JAMES       CLOUDY    97  54  23 E13       29.82F HX  94
FAIRMONT       CLOUDY    98  55  23 E8        29.83F HX  96
GLENCOE        FAIR      87  59  39 E10       29.86S
FARIBAULT      FAIR      91  61  35 CALM      29.87S HX  91
WASECA         FAIR      97  50  20 E12G17    29.88R HX  94
ALBERT LEA     FAIR      93  39  15 NE6       29.87R
$$
MNZ078>079-086>088-094>096-272100-
   Southeast Minnesota

CITY           SKY/WX    TMP DP  RH WIND       PRES   REMARKS
ROCHESTER      FAIR      92  59  33 N7        29.90R HX  91
RED WING       FAIR      90  55  31 NE5       29.84F
STANTON        FAIR      91  63  40 NE10      29.85F HX  91
DODGE CENTER   FAIR      93  46  20 NE10      29.90R
WINONA         FAIR      95  61  31 CALM      29.86R HX  95
AUSTIN         FAIR      97  46  17 NE3       29.87R HX  93
PRESTON        FAIR      92  52  25 NE5       29.90S
$$
ABBREVIATIONS USED IN REMARKS
   TC - TEMPERATURES IN CELSIUS
  WCI - WIND CHILL INDEX
   HX - HEAT INDEX
  VSB - VISIBILITY
$$




USA.gov is the U.S. government's official web portal to all federal, state and local government web resources and services.